Showing default

SDX02, 62460

Orbit data source: Space-Track

SDX02, 62460 is a payload satellite owned by ISRO (IN) in LEO that was launched on Mon, 30 Dec 2024 UTC via a PSLV launch vehicle from the Sirharikota (SRI). Payloads include a variety of satellites, spacecraft, and rockets equipped with specific instruments for various scientific and technological missions. These include communications satellites like Starlink; space stations such as the ISS; scientific satellites like the Hubble; Earth observation satellites from companies like Planet Labs, Umbra, and HawkEye 360; GPS; miniature CubeSats for education and research; and military/defense satellites.

Loading next visibility...
SDX02 details
Identifier
62460, 2024-253B
Orbit
LEO
Last TLE update14 hours ago
Origin
Flag of INISRO (IN / IND)
ManufacturerISRO
MissionOperational Civil Technology
Bus & MotorSPADEX, Unknown motor
Mass220 kg wet, ~180 kg dry
Launch date (UTC)
2024-12-30 (2 months ago)
Launch vehicle
PSLV
Launch site
Sirharikota (SRI)
Object type
Payload
Rocket body
Debris
Shape & HBRBox + 2 Pan, 2.5 m
Radar Cross Section0.901 m², Large (>1 m²)

Expand to show TLE details & history

TLE from 14 hours ago
0 SDX02
1 62460U 24253B   25046.94758221  .00029051  00000-0  88640-3 0  9995
2 62460  54.9980  46.8688 0013839  55.0405 305.1919 15.33669732  2452
Epoch: 2025-02-15T22:44Z
Definitive object data (Epoch: 2025-02-15T22:44:31.102Z)
Latitude
Longitude-80.44847°
Altitude460.523 km
Speed7.641 km/s
True Right ascension03h 07m 28s
True Declination0° 00' 00"
Sunlit
Object was in daylight at TLE epoch
Visualization TLE readout
Latitude-52.83184°
Longitude-149.71932°
Altitude489.722 km
Speed7.616 km/s
Apparent Right ascension01h 06m 33s
Apparent Declination-52° 15' 33"
Sunlit
Object is in daylight
Visualization observer readout
Local Sidereal Time15:15:49
Azimuth130.003° SE
Elevation-64.712°
Doppler factor1
Orbital elements
Apogee altitude474.307 km
Perigee altitude455.367 km
Semi-major axis6,842.974 km
Eccentricity0.0013839
Inclination54.998°
RAAN46.8688°
Arg. of periapsis55.0405°
True anomaly305.06217°
Mean anomaly305.1919°
Eccentric anomaly305.12705°
Mean motion3.83421 °/min
BSTAR0.0008864
Orbital period93.89 mins
Loading maneuver chart data...
Loading historical data...
Loading historical data...
Loading historical data...
Loading historical data...
Loading historical data...
Loading historical data...
Loading historical data...
Other satellites on launch #253 in the year 2024 (2024-12-30 UTC)

SDX02 Visibility forecast

Observer location: undefined°, undefined

Span
Click to sort rows by Start time (UTC) header in descending order
Start Az.
Max El. time (UTC)
Max El. Az.
Max El.
End time (UTC)
End Az.
5 mins2025-02-17 01:29:17.381Z179.884° S2025-02-17 01:31:17.381Z138.432° SSE23.592°2025-02-17 01:34:17.381Z73.159° E
4 mins2025-02-17 03:07:17.381Z275.977° WNW2025-02-17 03:09:17.381Z334.553° NNW27.546°2025-02-17 03:11:17.381Z21.192° NNE
5 mins2025-02-17 09:41:17.381Z299.651° NW2025-02-17 09:43:17.381Z203.59° SW41.306°2025-02-17 09:46:17.381Z145.574° SSE
|